Location: G�ppingen
(48.7089°N, 9.6563°E)
Time: 12:42:12
(UTC+01:00)

N. Korean satellite - Visible Passes

Search period start: 20 February 2018 00:00
Search period end: 02 March 2018 00:00
Orbit: 459 x 514 km, 97.2° (Epoch: 20 February)

Date Brightness Start Highest point End Pass type
(mag) Time Alt. Az. Time Alt. Az. Time Alt. Az.
20 Feb 8.3 06:42:47 10° NNE 06:46:14 39° E 06:49:43 10° SSE visible
20 Feb 9.3 18:56:43 10° SSW 18:59:31 23° W 19:02:21 10° NW visible
21 Feb 9.6 06:19:28 10° NE 06:22:22 22° E 06:25:18 10° SE visible
21 Feb 8.0 18:32:20 10° S 18:35:39 42° W 18:39:01 10° NNW visible
22 Feb 10.4 05:56:48 10° ENE 05:58:26 12° E 06:00:04 10° ESE visible
23 Feb 10.1 19:20:14 10° WSW 19:21:57 13° W 19:23:42 10° WNW visible
24 Feb 8.4 06:41:17 10° NNE 06:44:46 38° E 06:48:16 10° SSE visible
24 Feb 9.3 18:55:09 10° SSW 18:58:00 24° W 19:00:54 10° NW visible
25 Feb 9.7 06:17:59 10° NE 06:20:53 22° E 06:23:48 10° SE visible
25 Feb 7.9 18:30:47 10° S 18:34:07 44° W 18:37:32 10° NNW visible
26 Feb 10.4 05:55:20 10° ENE 05:56:55 12° E 05:58:31 10° ESE visible
27 Feb 10.1 19:18:32 10° WSW 19:20:24 14° W 19:22:17 10° WNW visible
28 Feb 9.3 18:53:30 10° SSW 18:56:26 24° W 18:59:25 10° NW visible
01 Mar 9.8 06:16:26 10° NE 06:19:21 21° E 06:22:15 10° SE visible
